Regional Weather Roundup
Issued by NWS

Home | Current Version | Previous Version | Graphics & Text | Print | Product List | Glossary Off
Versions: 1 2 3 4 5 6 7 8 9 10 11 12 13 14 15 16 17 18 19 20 21 22 23 24 25 26 27 28 29 30 31 32 33 34 35 36 37 38 39 40 41 42 43 44 45 46 47 48 49 50

000
ASUS43 KTOP 301259
RWRKS

WEATHER ROUNDUP FOR KANSAS
NATIONAL WEATHER SERVICE GOODLAND KS
800 AM CDT SAT JUL 30 2016

NOTE:  "FAIR" INDICATES FEW OR NO CLOUDS BELOW 12,000 FEET WITH NO
SIGNIFICANT WEATHER AND/OR OBSTRUCTIONS TO VISIBILITY.

KSZ001>006-013>018-027>032-041>047-301400-
NORTHWEST KANSAS

CITY           SKY/WX    TMP DP  RH WIND       PRES   REMARKS
GOODLAND       SUNNY     64  61  90 E3        30.03S
HAYS           PTSUNNY   72  61  68 S8        30.00S
HILL CITY      SUNNY     70  67  90 CALM      30.00R
RUSSELL        PTSUNNY   71  68  90 S10       29.99S
$$

KSZ061>065-074>080-084>089-301400-
SOUTHWEST KANSAS

CITY           SKY/WX    TMP DP  RH WIND       PRES   REMARKS
DODGE CITY     MOSUNNY   69  66  90 S10       29.98F
ELKHART          N/A     64  60  87 W5          N/A
GARDEN CITY    CLOUDY    69  65  86 S9        29.99S
GREAT BEND     CLOUDY    70  61  73 S10G17    30.02R THUNDER
LIBERAL        SUNNY     66  63  88 SW6       30.03R
$$

KSZ066>073-081>083-090>101-301400-
SOUTHEAST KANSAS

CITY           SKY/WX    TMP DP  RH WIND       PRES   REMARKS
CHANUTE        SUNNY     73  70  90 E6        30.00S
COFFEYVILLE    MOSUNNY   73  71  93 CALM      30.00R
HUTCHINSON     CLOUDY    73  70  90 S3        30.00F
NEWTON         CLOUDY    72  70  93 S3        30.01S
PARSONS        SUNNY     74  71  91 CALM      30.01S
WICHITA INTL   LGT RAIN  75  71  87 SW3       30.00S
WICHITA JABRA  MOSUNNY   73  72  96 S3        30.00S
WICHITA MCCONL PTSUNNY   75  69  81 S2        30.00S
WINFIELD       PTSUNNY   74  68  81 E6        30.00S
$$

KSZ007>012-019>026-033>040-048>060-102>105-301400-
NORTHEAST KANSAS

CITY           SKY/WX    TMP DP  RH WIND       PRES   REMARKS
CONCORDIA      SUNNY     68  64  87 E6        30.01S
EMPORIA        SUNNY     70  66  87 E6        30.00S
LAWRENCE       SUNNY     68  64  87 E5        30.01S
MANHATTAN      SUNNY     69  64  84 NE6       30.00S
OLATHE IND     MOSUNNY   70  64  81 E3        30.02S
OLATHE EXE     SUNNY     69  63  81 E6        30.02S
SALINA         MOSUNNY   73  69  87 SE5       30.00R
TOPEKA BILLARD SUNNY     69  64  84 E3        30.01S
TOPEKA FORBES  SUNNY     69  64  84 SE5       30.01S
$$



USA.gov is the U.S. government's official web portal to all federal, state and local government web resources and services.